Location: ?????
(55.6500°N, 37.2500°E)
Time: 01:04:00
(UTC+00:00)

Cosmos 2322 Rocket - Pass Details

Date: 19 May 2025
Orbit: 832 x 850 km, 71.0° (Epoch: 13 June)

Event Time Altitude Azimuth Distance (km) Brightness Sun altitude
Rises 19:22:27 0° 323° (NW) 3,422 7.5 -9.9°
Reaches altitude 10° 19:25:06 10° 332° (NNW) 2,481 6.3 -10.1°
Maximum altitude 19:30:23 38° 39° (NE) 1,278 3.4 -10.4°
Drops below altitude 10° 19:35:38 10° 107° (ESE) 2,460 4.2 -10.8°
Enters shadow 19:36:50 - 112° (ESE) 2,882 4.5 -10.8°
